Change the Weather History Date:

Friday, March 1, 2013

  Actual Average Record
Temperature  
Mean Temperature 22 °F -  
Max Temperature 24 °F 31 °F 62 °F (1999)
Min Temperature 19 °F 17 °F -5 °F (2014)
Degree Days  
Heating Degree Days 44    
Moisture  
Dew Point 16 °F    
Average Humidity 76    
Maximum Humidity 86    
Minimum Humidity 64    
Precipitation  
Precipitation 0.00 in - - ()
Sea Level Pressure  
Sea Level Pressure 30.28 in    
Wind  
Wind Speed 7 mph (North)    
Max Wind Speed 12 mph    
Max Gust Speed 17 mph    
Visibility 10 miles    
Events Snow    
Averages and records for this station are not official NWS values.
T = Trace of Precipitation, MM = Missing Value Source: NWS Daily Summary

Daily Weather History Graph

Daily Weather History Graph

Search for Another Location

Airport or City:

Trip Planner

Search our weather history database for the weather conditions in past years. The results will help you decide how hot, cold, wet, or windy it might be!

Date:

Astronomy

Mar. 01, 2013 Rise Set
Actual Time 6:59 AM CST 6:13 PM CST
Civil Twilight 6:31 AM CST 6:42 PM CST
Nautical Twilight 5:58 AM CST 7:15 PM CST
Astronomical Twilight 5:25 AM CST 7:48 PM CST
Moon 10:57 PM CST (3/1) 8:39 AM CST (3/1)
Length of Visible Light 12h 11m
Length of Day
11h 14m
Waning Gibbous, 83% of the Moon is Illuminated
Mar 1
Waning Gibbous
Mar 4
Last Quarter
Mar 11
New
Mar 19
First Quarter
Mar 27
Full

Hourly Weather History & Observations

Time (CST) Temp. Windchill Dew Point Humidity Pressure Visibility Wind Dir Wind Speed Gust Speed Precip Events Conditions
12:15 AM 24.8 °F 16.9 °F 19.4 °F 80% 30.19 in 10.0 mi NNW 6.9 mph - N/A Snow Light Snow
12:35 AM 24.8 °F 16.9 °F 19.4 °F 80% 30.19 in 10.0 mi NNW 6.9 mph - N/A Snow Light Snow
1:15 AM 24.8 °F 16.9 °F 19.4 °F 80% 30.20 in 10.0 mi NNW 6.9 mph - N/A Snow Light Snow
1:35 AM 24.8 °F 16.9 °F 19.4 °F 80% 30.20 in 10.0 mi NNW 6.9 mph - N/A Snow Light Snow
1:55 AM 24.8 °F 17.9 °F 19.4 °F 80% 30.21 in 10.0 mi NNW 5.8 mph - N/A   Overcast
2:15 AM 24.8 °F 16.9 °F 19.4 °F 80% 30.21 in 10.0 mi NNW 6.9 mph - N/A Snow Light Snow
2:35 AM 23.0 °F 14.7 °F 17.6 °F 80% 30.21 in 10.0 mi NNW 6.9 mph - N/A   Overcast
2:55 AM 23.0 °F 13.9 °F 17.6 °F 80% 30.21 in 10.0 mi NNW 8.1 mph - N/A Snow Light Snow
3:15 AM 23.0 °F 14.7 °F 17.6 °F 80% 30.20 in 10.0 mi NNW 6.9 mph - N/A Snow Light Snow
3:55 AM 23.0 °F 14.7 °F 17.6 °F 80% 30.21 in 10.0 mi NNW 6.9 mph - N/A   Overcast
4:15 AM 23.0 °F 13.9 °F 17.6 °F 80% 30.21 in 10.0 mi North 8.1 mph - N/A Snow Light Snow
4:35 AM 23.0 °F 13.9 °F 17.6 °F 80% 30.21 in 5.0 mi North 8.1 mph - N/A Snow Light Snow
5:15 AM 21.2 °F 11.7 °F 17.6 °F 86% 30.22 in 7.0 mi North 8.1 mph - N/A Snow Light Snow
5:35 AM 21.2 °F 10.9 °F 17.6 °F 86% 30.22 in 10.0 mi NNW 9.2 mph - N/A Snow Light Snow
5:55 AM 21.2 °F 10.9 °F 17.6 °F 86% 30.22 in 10.0 mi North 9.2 mph - N/A   Overcast
6:15 AM 21.2 °F 11.7 °F 17.6 °F 86% 30.23 in 10.0 mi North 8.1 mph - N/A   Overcast
6:35 AM 21.2 °F 13.6 °F 17.6 °F 86% 30.24 in 10.0 mi North 5.8 mph - N/A Snow Light Snow
6:55 AM 21.2 °F 11.7 °F 17.6 °F 86% 30.24 in 10.0 mi North 8.1 mph - N/A   Overcast
7:15 AM 21.2 °F 11.7 °F 17.6 °F 86% 30.24 in 10.0 mi North 8.1 mph - N/A   Overcast
7:35 AM 21.2 °F 11.7 °F 17.6 °F 86% 30.25 in 10.0 mi North 8.1 mph - N/A   Overcast
7:55 AM 21.2 °F 10.9 °F 17.6 °F 86% 30.25 in 10.0 mi North 9.2 mph - N/A   Overcast
8:15 AM 21.2 °F 10.9 °F 17.6 °F 86% 30.26 in 10.0 mi North 9.2 mph - N/A   Overcast
8:35 AM 21.2 °F 10.1 °F 15.8 °F 80% 30.27 in 10.0 mi North 10.4 mph - N/A   Mostly Cloudy
8:55 AM 21.2 °F 10.1 °F 15.8 °F 80% 30.27 in 10.0 mi North 10.4 mph 17.3 mph N/A   Scattered Clouds
9:15 AM 19.4 °F 8.6 °F 15.8 °F 86% 30.27 in 10.0 mi North 9.2 mph 16.1 mph N/A   Clear
9:35 AM 21.2 °F 10.1 °F 14.0 °F 74% 30.28 in 10.0 mi North 10.4 mph - N/A   Clear
9:55 AM 21.2 °F 10.1 °F 14.0 °F 74% 30.28 in 10.0 mi North 10.4 mph - N/A   Scattered Clouds
10:15 AM 21.2 °F 10.9 °F 15.8 °F 80% 30.29 in 10.0 mi North 9.2 mph - N/A   Overcast
10:35 AM 23.0 °F 11.7 °F 15.8 °F 74% 30.29 in 10.0 mi North 11.5 mph - N/A   Overcast
10:55 AM 23.0 °F 13.1 °F 15.8 °F 74% 30.29 in 10.0 mi North 9.2 mph - N/A   Overcast
11:15 AM 24.8 °F 16.1 °F 15.8 °F 69% 30.29 in 10.0 mi NNE 8.1 mph - N/A   Overcast
11:35 AM 24.8 °F 15.3 °F 15.8 °F 69% 30.30 in 10.0 mi NNE 9.2 mph - N/A   Overcast
12:15 PM 24.8 °F 14.6 °F 15.8 °F 69% 30.30 in 10.0 mi NNE 10.4 mph - N/A   Overcast
12:35 PM 24.8 °F 16.1 °F 14.0 °F 64% 30.30 in 10.0 mi NNE 8.1 mph - N/A   Overcast
12:55 PM 24.8 °F 16.9 °F 14.0 °F 64% 30.30 in 10.0 mi North 6.9 mph - N/A   Overcast
1:15 PM 24.8 °F 14.6 °F 15.8 °F 69% 30.30 in 10.0 mi North 10.4 mph - N/A   Overcast
1:35 PM 24.8 °F 14.0 °F 14.0 °F 64% 30.29 in 10.0 mi North 11.5 mph - N/A   Overcast
1:55 PM 24.8 °F 16.9 °F 14.0 °F 64% 30.30 in 10.0 mi North 6.9 mph 11.5 mph N/A   Overcast
2:15 PM 24.8 °F 15.3 °F 14.0 °F 64% 30.29 in 10.0 mi North 9.2 mph - N/A   Overcast
2:35 PM 24.8 °F 14.6 °F 15.8 °F 69% 30.29 in 10.0 mi North 10.4 mph - N/A   Overcast
2:55 PM 24.8 °F 16.1 °F 15.8 °F 69% 30.29 in 10.0 mi North 8.1 mph - N/A   Overcast
3:15 PM 24.8 °F 14.6 °F 14.0 °F 64% 30.29 in 10.0 mi North 10.4 mph - N/A   Overcast
3:35 PM 24.8 °F 14.6 °F 15.8 °F 69% 30.29 in 10.0 mi North 10.4 mph - N/A   Overcast
3:55 PM 24.8 °F 16.9 °F 15.8 °F 69% 30.29 in 10.0 mi NE 6.9 mph - N/A   Overcast
4:15 PM 24.8 °F 17.9 °F 15.8 °F 69% 30.30 in 10.0 mi NNE 5.8 mph - N/A   Overcast
4:35 PM 24.8 °F 17.9 °F 15.8 °F 69% 30.30 in 10.0 mi NE 5.8 mph - N/A   Overcast
4:55 PM 24.8 °F 15.3 °F 15.8 °F 69% 30.31 in 10.0 mi NNE 9.2 mph - N/A   Overcast
5:15 PM 24.8 °F 17.9 °F 15.8 °F 69% 30.31 in 10.0 mi North 5.8 mph - N/A   Overcast
5:35 PM 24.8 °F 17.9 °F 15.8 °F 69% 30.31 in 10.0 mi NNE 5.8 mph - N/A   Overcast
5:55 PM 24.8 °F 17.9 °F 15.8 °F 69% 30.32 in 10.0 mi NE 5.8 mph - N/A   Overcast
6:15 PM 23.0 °F 15.8 °F 15.8 °F 74% 30.33 in 10.0 mi NNE 5.8 mph - N/A   Overcast
6:35 PM 23.0 °F 15.8 °F 15.8 °F 74% 30.33 in 10.0 mi NNE 5.8 mph - N/A   Overcast
6:55 PM 23.0 °F 15.8 °F 15.8 °F 74% 30.34 in 10.0 mi NNE 5.8 mph - N/A   Overcast
7:15 PM 23.0 °F 15.8 °F 15.8 °F 74% 30.34 in 10.0 mi North 5.8 mph - N/A   Overcast
7:35 PM 21.2 °F 13.6 °F 15.8 °F 80% 30.34 in 10.0 mi NE 5.8 mph - N/A   Overcast
7:55 PM 21.2 °F 14.9 °F 15.8 °F 80% 30.34 in 10.0 mi NNE 4.6 mph - N/A   Overcast
8:15 PM 21.2 °F 11.7 °F 15.8 °F 80% 30.34 in 10.0 mi NNE 8.1 mph - N/A   Overcast
8:35 PM 21.2 °F 13.6 °F 14.0 °F 74% 30.34 in 10.0 mi NNE 5.8 mph - N/A   Overcast
8:55 PM 21.2 °F 14.9 °F 14.0 °F 74% 30.33 in 10.0 mi NNE 4.6 mph - N/A   Overcast
9:15 PM 21.2 °F 13.6 °F 14.0 °F 74% 30.34 in 10.0 mi North 5.8 mph - N/A   Overcast
9:35 PM 21.2 °F 13.6 °F 15.8 °F 80% 30.35 in 10.0 mi NNE 5.8 mph - N/A   Overcast
9:55 PM 21.2 °F 16.4 °F 15.8 °F 80% 30.36 in 10.0 mi North 3.5 mph - N/A   Overcast
10:15 PM 19.4 °F 11.5 °F 14.0 °F 80% 30.35 in 10.0 mi NNE 5.8 mph - N/A   Overcast
10:35 PM 21.2 °F 16.4 °F 15.8 °F 80% 30.34 in 10.0 mi North 3.5 mph - N/A   Overcast
10:55 PM 21.2 °F 13.6 °F 14.0 °F 74% 30.34 in 10.0 mi NNE 5.8 mph - N/A   Overcast
11:15 PM 19.4 °F - 14.0 °F 80% 30.34 in 10.0 mi Calm Calm - N/A   Overcast
11:35 PM 19.4 °F 12.8 °F 14.0 °F 80% 30.34 in 10.0 mi NE 4.6 mph - N/A   Overcast
11:55 PM 19.4 °F - 14.0 °F 80% 30.32 in 10.0 mi Calm Calm - N/A   Overcast